EW2997 Weather Reports


Display with metric or nautical units.
time (UTC)temp
F
wind
direction
speed
MPH
gust
MPH
rain 1hr
in
rain 24hr
in
rain mn
in
humidity
%
barometer
mb
20260506145328 60 253 0.0 0.0 0.03 0.23 0.23 94 1011.1
20260506142324 58 23 2.0 2.0 0.02 0.22 0.22 95 1010.7
20260506135320 58 213 4.0 4.0 0.07 0.19 0.19 94 1011.4
20260506132318 58 204 4.0 4.0 0.01 0.13 0.13 93 1011.1
20260506125314 58 180 0.0 0.0 0.05 0.10 0.10 92 1011.4
20260506122310 59 237 4.0 4.0 0.02 0.07 0.07 89 1011.1
20260506115307 59 168 1.0 1.0 0.05 0.05 0.05 89 1011.4
20260506112305 59 114 0.0 0.0 0.04 0.04 0.04 87 1011.7
20260506105305 63 192 2.0 2.0 0.00 0.00 0.00 70 1011.1
20260506102259 66 260 3.0 3.0 0.00 0.00 0.00 58 1010.4
20260506095255 66 210 5.0 6.0 0.00 0.00 0.00 56 1009.7
20260506092251 66 182 3.0 3.0 0.00 0.00 0.00 55 1010.4
20260506085251 67 221 3.0 3.0 0.00 0.00 0.00 53 1010.4
20260506082248 67 150 3.0 3.0 0.00 0.00 0.00 52 1010.7
20260506072240 68 200 2.0 2.0 0.00 0.00 0.00 51 1010.7
20260506062235 68 222 3.0 3.0 0.00 0.00 0.00 50 1011.4
20260506042229 65 120 2.0 2.0 0.00 0.00 0.00 55 1012.5
20260506035229 67 168 0.0 0.0 0.00 0.00 0.00 52 1012.1
20260506032229 67 148 0.0 0.0 0.00 0.00 0.00 51 1012.1
20260506025229 64 119 0.0 0.0 0.00 0.00 0.00 56 1012.1
20260506022228 61 162 0.0 0.0 0.00 0.00 0.00 65 1012.5
20260506015224 61 114 0.0 0.0 0.00 0.00 0.00 63 1012.1
20260506012222 62 174 0.0 0.0 0.00 0.00 0.00 61 1012.1
20260506005222 65 126 2.0 2.0 0.00 0.00 0.00 51 1011.4
20260506002217 66 138 3.0 3.0 0.00 0.00 0.00 52 1011.4
20260505235212 71 183 0.0 0.0 0.00 0.00 0.00 47 1011.4
20260505232212 76 256 4.0 4.0 0.00 0.00 0.00 33 1011.1
20260505225212 78 191 2.0 2.0 0.00 0.00 0.00 34 1010.7
20260505222209 78 293 3.0 3.0 0.00 0.00 0.00 39 1011.1
20260505215205 79 217 5.0 6.0 0.00 0.00 0.00 34 1010.7
20260505212205 80 258 4.0 4.0 0.00 0.00 0.00 31 1010.7
20260505205200 81 203 6.0 7.0 0.00 0.00 0.00 31 1010.7
20260505202158 81 252 4.0 4.0 0.00 0.00 0.00 31 1011.1
20260505195157 81 213 6.0 6.0 0.00 0.00 0.00 31 1011.1
20260505192157 80 258 6.0 6.0 0.00 0.00 0.00 35 1011.4
20260505185154 79 216 9.0 10.0 0.00 0.00 0.00 35 1011.7
20260505182153 80 240 5.0 5.0 0.00 0.00 0.00 40 1012.1
20260505175150 78 258 4.0 4.0 0.00 0.00 0.00 40 1012.5
20260505172149 78 276 7.0 8.0 0.00 0.00 0.00 39 1012.5
20260505165148 76 234 5.0 5.0 0.00 0.00 0.00 43 1013.2
20260505162143 76 262 6.0 6.0 0.00 0.00 0.00 44 1013.2
20260505152138 74 180 6.0 7.0 0.00 0.00 0.00 48 1013.5